DW5057 Weather Reports


Display with metric or nautical units.
time (UTC)temp
F
wind
direction
speed
MPH
gust
MPH
rain 1hr
in
rain 24hr
in
rain mn
in
humidity
%
barometer
mb
20260504201516 63 345 1.0 3.0 0.00 0.00 0.00 76 1012.7
20260504200516 63 43 1.0 5.0 0.00 0.00 0.00 76 1012.8
20260504195517 63 266 1.0 4.0 0.00 0.00 0.00 76 1012.9
20260504194516 63 193 1.0 3.0 0.00 0.00 0.00 75 1013.0
20260504193517 63 247 1.0 4.0 0.00 0.00 0.00 75 1013.1
20260504192537 64 203 1.0 3.0 0.00 0.00 0.00 74 1013.3
20260504191517 64 247 1.0 4.0 0.00 0.00 0.00 74 1013.5
20260504190537 64 263 1.0 4.0 0.00 0.00 0.00 75 1013.6
20260504185517 64 256 1.0 6.0 0.00 0.00 0.00 74 1013.7
20260504184517 64 243 1.0 5.0 0.00 0.00 0.00 73 1013.7
20260504183517 64 192 1.0 4.0 0.00 0.00 0.00 73 1013.7
20260504182518 64 248 1.0 5.0 0.00 0.00 0.00 73 1013.9
20260504181538 64 234 1.0 4.0 0.00 0.00 0.00 72 1014.0
20260504180538 64 166 1.0 4.0 0.00 0.00 0.00 72 1014.1
20260504175518 64 63 1.0 4.0 0.00 0.00 0.00 71 1014.2
20260504174515 64 342 2.0 6.0 0.00 0.00 0.00 72 1014.3
20260504173516 65 42 2.0 4.0 0.00 0.00 0.00 71 1014.4
20260504172516 65 48 2.0 5.0 0.00 0.00 0.00 69 1014.6
20260504171556 65 49 1.0 5.0 0.00 0.00 0.00 69 1014.7
20260504170536 65 133 1.0 3.0 0.00 0.00 0.00 69 1014.8
20260504150518 66 7 1.0 3.0 0.00 0.00 0.00 68 1015.6
20260504130517 61 212 1.0 3.0 0.00 0.00 0.00 68 1016.0
20260504110516 55 196 1.0 2.0 0.00 0.00 0.00 78 1016.9
20260504100517 54 201 1.0 2.0 0.00 0.00 0.00 77 1016.7
20260504081516 53 191 1.0 4.0 0.00 0.00 0.00 75 1016.8
20260504080516 53 287 1.0 4.0 0.00 0.00 0.00 74 1016.8
20260504050516 53 336 1.0 2.0 0.00 0.00 0.00 71 1016.7
20260504045516 53 337 1.0 2.0 0.00 0.00 0.00 71 1016.7
20260504044516 53 345 1.0 2.0 0.00 0.00 0.00 70 1016.7
20260504043517 53 349 1.0 2.0 0.00 0.00 0.00 69 1016.7
20260504042516 53 350 1.0 2.0 0.00 0.00 0.00 67 1016.5
20260504041517 53 347 1.0 2.0 0.00 0.00 0.00 67 1016.4
20260504040557 53 342 1.0 2.0 0.00 0.00 0.00 67 1016.4
20260504035517 53 342 1.0 2.0 0.00 0.00 0.00 69 1016.3
20260504034517 53 18 1.0 2.0 0.00 0.00 0.00 68 1016.3
20260504033517 53 343 1.0 2.0 0.00 0.00 0.00 69 1016.3
20260504032518 53 356 1.0 2.0 0.00 0.00 0.00 69 1016.3
20260504031518 53 347 1.0 2.0 0.00 0.00 0.00 69 1016.1
20260504030538 53 349 1.0 2.0 0.00 0.00 0.00 69 1016.2
20260504025518 53 3 1.0 2.0 0.00 0.00 0.00 69 1016.2
20260504024518 53 356 1.0 2.0 0.00 0.00 0.00 70 1016.2
20260504023536 53 353 1.0 2.0 0.00 0.00 0.00 70 1016.2
20260504022536 53 346 1.0 2.0 0.00 0.00 0.00 71 1016.2
20260504021536 53 1 1.0 2.0 0.00 0.00 0.00 73 1016.2
20260504020516 53 340 1.0 3.0 0.00 0.00 0.00 75 1016.1
20260504015516 53 347 1.0 2.0 0.00 0.00 0.00 73 1016.1
20260504014516 54 10 1.0 2.0 0.00 0.00 0.00 72 1016.0
20260504013516 54 22 1.0 2.0 0.00 0.00 0.00 71 1015.9
20260504012517 55 8 1.0 2.0 0.00 0.00 0.00 71 1015.9
20260504011517 55 25 1.0 2.0 0.00 0.00 0.00 69 1015.8
20260504010517 55 18 1.0 2.0 0.00 0.00 0.00 68 1015.7
20260504005537 55 7 1.0 2.0 0.00 0.00 0.00 67 1015.7
20260504004517 55 7 1.0 2.0 0.00 0.00 0.00 66 1015.5
20260504003518 55 14 1.0 2.0 0.00 0.00 0.00 64 1015.2
20260504002518 55 42 1.0 2.0 0.00 0.00 0.00 62 1015.1
20260504001518 56 18 1.0 2.0 0.00 0.00 0.00 62 1015.0
20260504000518 56 54 1.0 2.0 0.00 0.00 0.00 61 1015.0
20260503235518 56 57 1.0 2.0 0.00 0.00 0.00 61 1014.9
20260503234518 57 304 1.0 2.0 0.00 0.00 0.00 57 1014.9
20260503233518 57 271 0.0 2.0 0.00 0.00 0.00 56 1014.9
20260503232519 57 192 1.0 2.0 0.00 0.00 0.00 58 1014.8
20260503231519 57 216 0.0 2.0 0.00 0.00 0.00 55 1014.7
20260503230518 58 300 1.0 2.0 0.00 0.00 0.00 54 1014.7
20260503225516 58 230 0.0 2.0 0.00 0.00 0.00 53 1014.7
20260503224536 58 242 0.0 2.0 0.00 0.00 0.00 49 1014.7
20260503223516 58 257 0.0 2.0 0.00 0.00 0.00 48 1014.6
20260503222536 59 66 0.0 1.0 0.00 0.00 0.00 48 1014.6
20260503221516 59 275 1.0 3.0 0.00 0.00 0.00 48 1014.6
20260503220516 59 299 0.0 2.0 0.00 0.00 0.00 46 1014.7
20260503215517 59 300 0.0 2.0 0.00 0.00 0.00 46 1014.7
20260503214517 59 281 0.0 2.0 0.00 0.00 0.00 44 1014.6
20260503213517 59 293 0.0 3.0 0.00 0.00 0.00 44 1014.6
20260503212517 59 354 0.0 2.0 0.00 0.00 0.00 45 1014.5
20260503211518 59 65 0.0 2.0 0.00 0.00 0.00 44 1014.5
20260503210518 59 58 1.0 3.0 0.00 0.00 0.00 44 1014.5
20260503205518 59 31 1.0 3.0 0.00 0.00 0.00 42 1014.4
20260503204518 59 62 1.0 3.0 0.00 0.00 0.00 42 1014.3
20260503203538 59 15 0.0 2.0 0.00 0.00 0.00 43 1014.5
20260503202518 59 301 1.0 4.0 0.00 0.00 0.00 41 1014.6